Flag for U.S.A. Weather past 2 weeks in Aurora, Colorado, U.S.A.

Now
82 °F

Broken clouds.


Feels Like: 81 °F
Forecast: 63 / 87 °F
Wind: 9 mph from East

Location: Buckley Air Force Base

Current Time: Jul 26, 2014 at 11:19:34 AM

Latest Report: Jul 26, 2014 at 10:58 AM


Visibility: 10 mi

Pressure: 29.98 "Hg

Humidity: 37%

Dew point: 53 °F

Location of AuroraLocation

Historic Weather in Aurora — Graph

°F

Aurora temperature yesterday

Maximum temperature yesterday: 90 °F (at 1:58 PM)
Minimum temperature yesterday: 65 °F (at 11:58 PM)
Average temperature yesterday: 74 °F

Past Weeks' High & Low Weather Summary

 TemperatureHumidityPressure
High93 °F (Jul 24, 3:58 PM)100% (Jul 12, 1:58 AM)30.25 "Hg (Jul 12, 1:58 AM)
Low55 °F (Jul 17, 12:58 AM)14% (Jul 20, 1:58 PM)29.78 "Hg (Jul 20, 12:58 AM)
Average72 °F56%29.96 "Hg
* Reported Jul 11 9:58 AM — Jul 26 9:58 AM, Aurora, Weather by CustomWeather, © 2014

Note: Actual official high and low records may vary slightly from our data, if they occured in-between our weather recording intervals... More about our weather records

Advertising

Aurora weather history for previous 24 hours

 ConditionsComfort  
Time TempWeatherWind HumidityBarometerVisibility
9:58 AM
Jul 26
82 °FBroken clouds.10 mph35%29.96 "Hg10 mi
8:58 AM77 °FBroken clouds.2 mph45%29.97 "Hg10 mi
7:58 AM73 °FBroken clouds.6 mph51%29.94 "Hg10 mi
6:58 AM65 °FScattered clouds.9 mph59%29.94 "Hg10 mi
5:58 AM63 °FPassing clouds.10 mph61%29.93 "Hg10 mi
4:58 AM63 °FPassing clouds.12 mph63%29.93 "Hg10 mi
3:58 AM65 °FPassing clouds.7 mph61%29.91 "Hg10 mi
2:58 AM65 °FPassing clouds.9 mph65%29.88 "Hg10 mi
1:58 AM66 °FPassing clouds.12 mph62%29.85 "Hg10 mi
12:58 AM67 °FPassing clouds.13 mph62%29.87 "Hg10 mi
11:58 PM
Jul 25
65 °FPassing clouds.9 mph78%29.89 "Hg10 mi
10:58 PM66 °FPassing clouds.7 mph73%29.89 "Hg10 mi
9:58 PM70 °FPartly cloudy.14 mph60%29.90 "Hg10 mi
8:58 PM67 °FLight rain. Partly sunny.20 mph75%29.92 "Hg10 mi
7:58 PM73 °FThundershowers. Broken clouds.12 mph59%29.94 "Hg10 mi
6:58 PM73 °FPartly sunny.5 mph67%29.92 "Hg10 mi
5:58 PM73 °FPartly sunny.13 mph63%29.90 "Hg10 mi
4:58 PM70 °FBroken clouds.24 mph64%29.89 "Hg10 mi
3:58 PM73 °FThundershowers. Partly sunny.16 mph56%29.90 "Hg10 mi
2:58 PM73 °FThunderstorms. Partly sunny.25 mph61%29.91 "Hg10 mi
1:58 PM90 °FBroken clouds.5 mph22%29.83 "Hg10 mi
12:58 PM88 °FBroken clouds.12 mph24%29.86 "Hg10 mi
11:58 AM89 °FBroken clouds.9 mph24%29.86 "Hg10 mi
Weather by CustomWeather, © 2014

See weather overviewHow to use our weather pages